NIMBUS 2 DEB

Satellite information

Favourite Embed

Satellite Type and Status

DEBRISIN ORBIT

Key statistics

Satellite NIMBUS 2 DEB at a glance.

Uptime

21544

Days in orbit

Revolutions

≈ 13.7

Per day

Orbit

SSO

Sun Synchronous Orbit

Inclination

100.2

Latest

Satellite identification and parameters

Extended collection of information and parameters for NIMBUS 2 DEB.

Object identification

Identified? True

Debris? True

Object name: NIMBUS 2 DEB

International designator: 1966-040S

Object number (NORAD): 28204

Object ID (CCSDS): 28204

Country: UNITED STATES OF AMERICA (US)

Current information (Y/N): Y

RCS size: SMALL

Orbital parameters

Period: 104.837 minutes

Inclination: 100.1743 deg

SMA: 7364.936 km

Apoapsis: 1015.105 km

Periapsis: 958.497 km

RAAN: 22.9709 deg

Eccentricy: 0.0038431

Argument of periapsis: 326.8097 deg

Mean anomaly: 47.5832 deg

Mean motion: 13.73565249 rev/day

Mean motion (dot): 0.0000447 rev/day2

B* drag term: 0.0048219 1/REarth

Two-line elements (TLE)

Creation date: May 8, 2025, 6:46 a.m.

Reference frame: TEME

Reference center: EARTH

Epoch: May 7, 2025, 11:41 p.m. UTC

TLE line 0: 0 NIMBUS 2 DEB

TLE line 1: 1 28204U 66040S 25127.98695895 .00004470 00000-0 48219-2 0 9999

TLE line 2: 2 28204 100.1743 22.9709 0038431 326.8097 47.5832 13.73565249 91742

Live tracking on map

Real-time ground track for satellite NIMBUS 2 DEB.

In-orbit conjunctions

A list of the most updated potential collisions computed for object NIMBUS 2 DEB.

Target Orbit TCA Probability of collision Miss distance Type
SL-8 R/B LEO 2025-02-24 03:10:19 0.0001105575 106.0 (m) ROCKET BODY
COSMOS 400 LEO 2024-06-25 23:04:48 0.0001063009 967.0 (m) PAYLOAD

Associated space launch

Nimbus 2, the second in a series of second-generation meteorological research-and-development satellites, added an additional medium-resolution infrared radiometer (MRIR) compared to Nimbus 1.

NIMBUS 2 DEB was lifted into orbit during the mission ‘Thor SLV-2A Agena B | Nimbus 2’, on board a Thor SLV-2A Agena B space rocket.

The launch took place on May 15, 1966, 7:55 a.m. from Space Launch Complex 2E.

For more information about the launch, click the button.

Launch to space Thor SLV-2A Agena B | Nimbus 2
Thor SLV-2A Agena B | Nimbus 2

Agency: N/A

Status: Launch Successful

Launch date: May 15, 1966, 7:55 a.m. UTC

Rocket: Thor SLV-2A Agena B

Launch pad: Space Launch Complex 2E

Location: Vandenberg SFB, CA, USA

...

Latest news about this satellite

There are no fresh news available about this satellite. Check back as we update our databases every day.


Newsletter sign-up

Weekly statistics, charts and insights to help you stay on top of the space industry.